Regional Weather Roundup
Issued by NWS

Home | Current Version | Previous Version | Text Only | Print | Product List | Glossary On
Versions: 1 2 3 4 5 6 7 8 9 10 11 12 13 14 15 16 17 18 19 20 21 22 23 24 25 26 27 28 29 30 31 32 33 34 35 36 37 38 39 40 41 42 43 44 45 46 47 48 49 50
000
ASUS43 KDMX 191007
RWRIA

WEATHER ROUNDUP FOR IOWA
NATIONAL WEATHER SERVICE DES MOINES IA
400 AM CST FRI DEC 19 2014

NOTE: "FAIR" INDICATES FEW OR NO CLOUDS BELOW 12,000 FEET WITH NO
SIGNIFICANT WEATHER AND/OR OBSTRUCTIONS TO VISIBILITY.

* - THESE STATIONS ARE NOT NWS STATIONS...THUS NOT UNDER NWS
QUALITY CONTROL.  THEY ALSO DO NOT REPORT WEATHER SUCH
AS PRECIPITATION OR FOG.

IAZ001>003-012>014-020>022-031>034-043>046-191100-
   NORTHWEST IOWA

CITY           SKY/WX    TMP DP  RH WIND       PRES   REMARKS
CARROLL *      CLOUDY    28  28 100 S5        30.22F FOG     WCI  23
CHEROKEE *     CLOUDY    30  28  93 S6        30.20F WCI  24
DENISON *      CLOUDY    30  30 100 S5        30.20F FOG     WCI  25
LE MARS *      CLOUDY    30  28  93 S8        30.19F WCI  23
ORANGE CITY *  MOCLDY    28  27  93 S7        30.17F FOG     WCI  21
SHELDON *      CLOUDY    28  28 100 S9        30.17F FOG     WCI  20
SIOUX CITY     CLOUDY    31  28  89 SE5       30.20F WCI  26
SPENCER        CLOUDY    28  26  92 S7        30.20S WCI  21
STORM LAKE *   CLOUDY    28  28 100 S5        30.20F FOG     WCI  23
$$

IAZ055>058-069>071-079>083-090>094-191100-
   SOUTHWEST IOWA

CITY           SKY/WX    TMP DP  RH WIND       PRES   REMARKS
ATLANTIC *     CLOUDY    30  28  93 S6        30.23F WCI  24
AUDUBON *      MOCLDY    28  25  86 S5        30.23F HAZE    WCI  23
CLARINDA *     CLOUDY    30  28  93 S3        30.27S
COUNCIL BLFS * CLOUDY    30  30 100 S6        30.22S FOG     WCI  24
CRESTON *      CLOUDY    28  28 100 S3        30.24S
HARLAN  *      CLOUDY    30  30 100 S8        30.26S FOG     WCI  23
LAMONI         CLOUDY    28  26  92 CALM      30.25S
RED OAK *      CLOUDY    30  30 100 S6        30.25S WCI  24
SHENANDOAH *   CLOUDY    30  30 100 S5        30.26F FOG     WCI  25
$$

IAZ047>049-059>061-072>074-084-191100-
   CENTRAL IOWA

CITY           SKY/WX    TMP DP  RH WIND       PRES   REMARKS
AMES           CLOUDY    26  22  84 SE5       30.26S WCI  20
ANKENY *       CLOUDY    27  25  93 CALM      30.26F
CHARITON *     CLOUDY    28  27  93 CALM      30.26S
DES MOINES     FLURRIES  29  24  82 SE3       30.26F
GRINNELL*      CLOUDY    27  23  86 CALM      30.26F
KNOXVILLE *    CLOUDY    27  23  86 SE3       30.25F
MARSHALLTOWN   CLOUDY    24  21  88 SE5       30.25F WCI  18
PELLA *        CLOUDY    27  25  93 SE3       30.28F
PERRY *        CLOUDY    28  28 100 SE5       30.25S FOG     WCI  23
$$

IAZ004>006-015-016-023>025-035-036-191100-
   NORTH CENTRAL IOWA

CITY           SKY/WX    TMP DP  RH WIND       PRES   REMARKS
ALGONA *       CLOUDY    27  25  93 S7        30.23F WCI  19
CLARION *      CLOUDY    25  25 100 S8        30.24F WCI  16
ESTHERVILLE    CLOUDY    25  23  92 S9        30.20F WCI  15
FORT DODGE *   CLOUDY    27  21  80 S3        30.24S
MASON CITY     CLOUDY    24  20  84 S6        30.26F WCI  17
FOREST CITY *  CLOUDY    27  21  80 S6        30.23F WCI  20
IOWA FALLS *   CLOUDY    25  23  93 S3        30.26F
$$

IAZ007>011-017>019-026>030-037>042-050>054-066-191100-
   NORTHEAST IOWA

CITY           SKY/WX    TMP DP  RH WIND       PRES   REMARKS
CEDAR RAPIDS   CLOUDY    24  20  84 CALM      30.28F
CHARLES CITY * CLOUDY    23  19  86 CALM      30.26F
CLINTON *      CLEAR     14   9  79 N6        30.33F WCI   5
DECORAH *      CLOUDY    23  19  86 CALM      30.26S
DUBUQUE        CLOUDY    23  19  85 CALM      30.28F
MONTICELLO *   CLOUDY    18  18 100 CALM      30.29F
OELWEIN *      CLOUDY    23  19  86 CALM      30.28S
WATERLOO       CLOUDY    24  20  84 S3        30.28F
$$

IAZ064-065-067-068-078-191100-
   EAST CENTRAL IOWA

CITY           SKY/WX    TMP DP  RH WIND       PRES   REMARKS
DAVENPORT      CLEAR     14  10  84 N5        30.30F WCI   6
IOWA CITY      CLOUDY    26  20  77 CALM      30.31F
MT. PLEASANT * CLOUDY    27  23  86 N7        30.29F WCI  19
MUSCATINE *    CLOUDY    27  21  80 NE5       30.31F WCI  21
QUAD CITIES    CLEAR     16  12  84 CALM      30.30F
$$

IAZ062-063-075>077-085>089-095>099-191100-
   SOUTHEAST IOWA

CITY           SKY/WX    TMP DP  RH WIND       PRES   REMARKS
BURLINGTON     CLOUDY    28  23  81 NE6       30.28F WCI  22
FAIRFIELD *    CLOUDY    27  23  86 NE3       30.28F
FORT MADISON * CLOUDY    27  25  93 CALM      30.29S
KEOKUK *       CLOUDY    27  25  93 CALM      30.27F
OSKALOOSA *    CLOUDY    27  23  86 E3        30.27F
CENTERVILLE *  CLOUDY    27  27 100 CALM      30.27S
OTTUMWA        CLOUDY    27  22  81 NE3       30.27F
WASHINGTON *   CLOUDY    27  25  93 NE3       30.28F
$$

ABBREVIATIONS USED IN REMARKS
   TC - TEMPERATURES IN CELSIUS
  WCI - WIND CHILL INDEX
   HX - HEAT INDEX
  VSB - VISIBILITY
$$



USA.gov is the U.S. government's official web portal to all federal, state and local government web resources and services.